www.pogodaiklimat.ru

Погода и климат >> Архив погоды >> Россия >> Нижегородская область >> Шахунья


ПОГОДА в Шахунье

  • Прогноз погоды в Шахунье
  • Монитор погоды в Шахунье

АРХИВ ПОГОДЫ в Шахунье

Время (UTC), дата Ветер
(напр.,м/с)
 
Видим.   Явления Облачность Т
(С)
Тd
(С)
f
(%)
Тe
(С)
Тes
(С)
Комфортность P
(гПа)
Po
(гПа)
Тmin
(С)
Tmax
(С)
R
(мм)
R24
(мм)
S
(см)
03 20.05 С 3-4
{5}
50 км 10/0
[Ac As]
+5.6 +0.7 71 +3 +3 1018.9 997.3 +1.3
06 20.05 С 4-7
{7}
50 км 10/4 600 м
[Sc Ac und]
+7.6 +0.2 59 +5 +6 1019.2 997.7
09 20.05 СЗ 5-10
{10}
50 км 9/6 600 м
[Cu hum Ac As]
+10.0 +0.4 51 +7 +9 1018.9 997.6
12 20.05 СЗ 3-7
{9}
50 км {ливн. осадки} 9/8 600 м
[Cb cap Ac trans]
+11.5 +0.4 46 +10 +11 1018.5 997.4
15 20.05 С 3-7
{8}
50 км {ливн. осадки} 9/8 600 м
[Sc diur, vesp Ac trans]
+11.0 -1.4 42 +10 +10 1018.1 997.0 +12.9 0.0
18 20.05 штиль 0
{8}
4000 м {ливн. осадки} 3/0
[Ac trans]
+7.0 +1.9 70 +6 +6 1018.7 997.3
21 20.05 штиль 0
{2}
4000 м 1/0
[Ac trans]
+2.0 +0.4 89 +1 +1 1019.9 998.0
00 21.05 СЗ 1-1
{1}
4000 м ясно -0.2 -1.1 94 -2 -2 1020.8 998.6
03 21.05 СЗ 1-2
{2}
50 км 1/0
[Ci fib]
+4.0 +0.6 78 +3 +5 1021.2 999.4 -0.6
06 21.05 СЗ 4-7
{7}
50 км 3/1 1000 м
[Cu hum Ci fib]
+12.0 -3.3 34 +10 +16 1020.6 999.4
09 21.05 З 2-8
{9}
50 км 8/0
[Ci]
+14.4 -4.4 27 +14 +26 опасность
простуды
1019.3 998.3
12 21.05 СЗ 4-8
{8}
50 км 4/0
[Ci fib]
+16.7 -3.6 25 +16 +22 1017.8 997.1
15 21.05 СЗ 2-5
{8}
50 км 5/0
[Ci sp]
+16.1 -3.3 26 +16 +18 1016.6 995.8 +17.1
18 21.05 ЮЗ 1-1
{5}
4000 м 9/0
[Ac lent Cs]
+8.8 +2.1 63 +8 +8 1016.7 995.4
21 21.05 Ю 1-1
{1}
4000 м 6/0
[Ac lent]
+5.3 +0.7 72 +4 +4 1016.5 994.9
00 22.05 ЮЗ 1-1
{2}
50 км 10/3 600 м
[Sc Ac As]
+3.9 +1.1 82 +3 +3 1015.9 994.2
03 22.05 ЮЗ 2-4
{4}
50 км 8/0
[Ac lent Ci sp]
+8.8 +5.5 80 +7 +9 1015.0 993.7 +3.9
06 22.05 Ю 2-5
{5}
50 км 8/1 600 м
[Cu hum Ac lent Cc]
+14.6 +6.4 58 +14 +20 1013.5 992.7
09 22.05 ЮЗ 4-7
{7}
50 км 9/9 600 м
[Cu hum]
+16.2 +6.8 54 +16 +17 1012.2 991.5
12 22.05 ЮЗ 3-6
{8}
50 км 9/9 600 м
[Sc]
+14.7 +7.8 63 +14 +15 1011.5 990.8
15 22.05 ЮЗ 2-3
{7}
50 км 6/0
[Ac trans]
+14.1 +7.8 66 +14 +15 1010.0 989.2 +16.2
18 22.05 Ю 2-2
{4}
50 км 6/0
[Ac trans]
+8.2 +6.4 88 +6 +6 1010.1 988.8
21 22.05 Ю 1-1
{2}
4000 м 8/0
[Ac trans]
+6.9 +5.8 93 +6 +6 1008.6 987.4
00 23.05 Ю 1-3
{3}
50 км 10/10 200 м
[St]
+8.5 +7.4 93 +8 +8 1007.0 985.9
03 23.05 ЮЗ 1-2
{3}
20 км 10/10 200 м
[St]
+8.6 +7.6 93 +8 +8 1005.2 984.1 +6.9
06 23.05 З 1-3
{4}
50 км 10/10 300 м
[St]
+12.6 +9.3 80 +13 +13 1003.1 982.4
09 23.05 СЗ 2-5
{5}
50 км 10/10 600 м
[Cu Sc]
+13.7 +9.8 77 +13 +13 1002.3 981.7
12 23.05 СЗ 4-11
{12}
50 км 10/10 600 м
[Cb calv]
+16.2 +8.8 62 +16 +16 1001.4 981.0
15 23.05 С 4-7
{9}
50 км слаб. ливневой дождь 10/10 300 м
[Cb cap]
+10.4 +8.5 88 +8 +8 1003.8 982.9 +16.2 1
18 23.05 С 3-6
{11}
4000 м {ливн. осадки} 9/9 600 м
[Sc diur, vesp Ac trans]
+5.7 +3.3 85 +2 +2 1007.4 986.1
21 23.05 С 2-3
{7}
4000 м 3/0
[Ac lent]
+2.8 -0.2 81 -0 -0 1009.9 988.2
00 24.05 С 2-3
{4}
50 км 1/0
[Ac trans]
-0.6 -1.8 92 -4 -4 1011.3 989.4
03 24.05 С 3-4
{4}
50 км ясно +1.3 -2.2 77 -3 -1 1012.9 991.1 -0.9 0.3
06 24.05 С 4-7
{7}
50 км 4/3 1000 м
[Cu hum Ci fib]
+6.6 -2.5 52 +3 +8 1013.7 992.3
09 24.05 СЗ 3-7
{9}
50 км 9/9 600 м
[Cu hum]
+8.8 -4.7 38 +7 +8 1014.6 993.3
12 24.05 СЗ 5-10
{10}
50 км 9/9 600 м
[Cu hum]
+11.0 -5.4 31 +9 +9 1015.0 993.8
15 24.05 С 3-5
{10}
50 км 6/5 1000 м
[Cu hum Ci fib]
+10.6 -5.7 31 +9 +10 1015.3 994.1 +11.9
18 24.05 В 1-2
{6}
4000 м 6/0
[Ci fib]
+4.6 -1.1 66 +4 +4 1016.8 995.2
21 24.05 ЮВ 2-2
{3}
4000 м 4/0
[Ci fib]
0.0 -1.8 88 -4 -4 1018.7 996.7
00 25.05 Ю 3-4
{4}
50 км 3/0
[Ci fib]
+1.3 -3.2 72 -3 -3 1019.3 997.4
03 25.05 Ю 3-4
{5}
50 км 6/0
[Ac trans Cc]
+4.5 -1.9 63 +1 +3 1019.4 997.6 -0.2
06 25.05 Ю 3-5
{6}
50 км 9/0
[Ac trans Cs]
+11.1 +0.4 48 +10 +15 1018.4 997.3
09 25.05 ЮЗ 3-5
{8}
50 км 9/0
[Ac trans]
+13.6 -1.9 34 +13 +18 1017.7 996.7
12 25.05 Ю 4-7
{7}
50 км 10/0
[Ac und]
+14.8 -1.2 33 +14 +16 1015.7 994.8
15 25.05 Ю 4-7
{9}
50 км 8/0
[Ac trans]
+16.1 -0.7 32 +16 +16 1013.6 992.9 +16.1
18 25.05 Ю 2-4
{7}
4000 м 8/0
[Ac trans]
+10.9 +0.4 48 +10 +10 1013.4 992.4
21 25.05 Ю 4-6
{6}
4000 м 6/0
[Ci fib]
+8.5 +0.9 59 +6 +6 1013.0 991.7
00 26.05 Ю 4-7
{8}
50 км 6/0
[Ci fib]
+9.5 +1.5 57 +7 +7 1011.1 989.9
03 26.05 ЮВ 3-5
{7}
50 км {ливн. осадки} 8/0
[Ac As]
+7.9 +4.3 78 +5 +6 1010.2 988.9 +7.9 0.5
06 26.05 Ю 6-11
{11}
50 км {ливн. осадки} 10/0
[Ac und]
+12.4 +5.0 61 +10 +11 1009.3 988.3
09 26.05 Ю 5-7
{11}
50 км 9/4 600 м
[Sc Ac As]
+13.3 +8.2 71 +11 +13 1009.1 988.3
12 26.05 Ю 5-9
{10}
50 км {ливн. осадки} 10/6 600 м
[Sc Ac und]
+14.0 +8.0 67 +12 +13 1009.0 988.2
15 26.05 Ю 2-3
{9}
50 км 10/10 600 м
[Sc]
+13.8 +9.3 74 +13 +13 1008.0 987.3 +14.0 0.5
18 26.05 ЮВ 2-3
{4}
4000 м {ливн. осадки} 10/10 600 м
[Sc]
+12.7 +10.4 86 +12 +12 1007.7 986.9
21 26.05 ЮЗ 1-1
{6}
4000 м слаб. ливневой дождь 10/10 300 м
[Cb cap]
+11.6 +10.3 92 +11 +11 1006.6 985.8
00 27.05 В 1-2
{2}
50 км {ливн. осадки} 8/8 600 м
[Sc]
+10.4 +9.2 92 +10 +10 1005.3 984.4

 

Местоположение метеостанции Шахунья (Нижегородская область, Россия): широта 57.66 долгота 46.63 высота над уровнем моря 175 м.

В архиве по умолчанию представлена погода в Шахунье за последнюю неделю. Архивные данные за месяц целиком и за предыдущие месяцы, начиная с января 2011 года, Вы можете получить, выбрав интересующий диапазон дат из раскрывающегося списка и нажав кнопку "Ввод!".


*Определитесь, кто Вы:
робот инопланетянин человек

Внимание! Время в таблицах - всемирное. Для получения местного времени необходимо прибавить поправку, которая равна 3 ч.

Смотрите также архив погоды в соседних городах и на ближайших метеорологических станциях:

Погода в Ветлуге (Нижегородская область, Россия) (55 км)
Погода в Шабалино (Кировская область, Россия) (77 км)
Погода в Яранске (Кировская область, Россия) (84 км)
Погода в Санчурске (Кировская область, Россия) (86 км)
Погода в Шарье (Костромская область, Россия) (102 км)
Погода в Красных Баках (Нижегородская область, Россия) (106 км)
Погода в Воскресенском (Нижегородская область, Россия) (119 км)
Погода в Котельниче (Кировская область, Россия) (124 км)
Погода в Мантурово (Костромская область, Россия) (132 км)
Погода в Йошкар-Оле (Марий-Эл, Россия) (134 км)

Пояснения к столбцам:

Ветер - указаны скорость ветра в м/с - средняя за 10 мин, порывы в срок и между сроками (в фигурных скобках) и направление, откуда дует ветер: С - северный, СВ - северо-восточный, В - восточный, ЮВ - юго-восточный, Ю - южный, ЮЗ - юго-западный, З - западный, СЗ - северо-западный.
Видимость - горизонтальная дальность видимости в метрах или километрах. При видимости от 1 до 10 км при отсутствии осадков обычно наблюдается дымка, при ухудшении видимости до 1 км и менее - туман. В сухую погоду видимость может ухудшаться дымом, пылью или мглою.
Явления - указаны атмосферные явления, наблюдавшиеся в срок или в последний час перед сроком; фигурными скобками обозначены явления, наблюдавшиеся между сроками (за 1-3 часа до срока); квадратными скобками обозначены град или гололедные отложения с указанием их диаметра в мм.
Облачность - указаны через наклонную черту общая и нижняя облачность в баллах и высота нижней границы облаков в метрах; квадратными скобками обозначены формы облаков: Ci - перистые, Cs - перисто-слоистые, Cc - перисто-кучевые, Ac - высококучевые, As - высокослоистые, Sc - слоисто-кучевые, Ns - слоисто-дождевые, Cu - кучевые, Cb - кучево-дождевые. Подробнее классификацию облаков см. в Атласе облаков (PDF).
T - Температура воздуха - температура, измеренная на высоте 2 м над землей.
Td - Температура точки росы - температура, при понижении до которой содержащийся в воздухе водяной пар достигнет насыщения.
f - Относительная влажность воздуха - влажноcть воздуха, измеренная на высоте 2 м над землей.
Te - Эффективная температура - температура, которую ощущает одетый по сезону человек в тени. Характеристика душности погоды. При расчете учитывается влияние влажности воздуха и скорости ветра на теплоощущения человека.
Tes - Эффективная температура на солнце - температура, которую ощущает человек, с поправкой на солнечный нагрев. Характеристика знойности погоды. Зависит от высоты солнца над горизонтом, облачности и скорости ветра. Ночью, в пасмурную погоду, а также при ветре 12 м/с и более поправка равна нулю.
P - Атмосферное давление - приведенное к уровню моря атмосферное давление.
Po - Атмосферное давление - измеренное на уровне метеостанции атмосферное давление.
Tmin - Минимальная температура - минимум температуры воздуха на высоте 2 м над землей.
Tmax - Максимальная температура - максимум температуры воздуха на высоте 2 м над землей.
R - Количество осадков - Количество выпавших осадков за период времени, мм. При наведении курсора мыши на число - период времени, за который выпало указанное количество осадков.
R24 - Количество осадков - Количество выпавших осадков за 24 часа, мм.
S - Снежный покров - Высота снежного покрова, см. При наведении курсора мыши на число - состояние снежного покрова и степень покрытия местности в баллах.